Regional Weather Roundup
Issued by NWS Albany, NY

Home | Current Version | Previous Version | Graphics & Text | Print | Product List | Glossary On
Versions: 1 2 3 4 5 6 7 8 9 10 11 12 13 14 15 16 17 18 19 20 21 22 23 24 25 26 27 28 29 30 31 32 33 34 35 36 37 38 39 40 41 42 43 44 45 46 47 48 49 50
000
ASUS41 KALY 281710
RWRALY

NEW YORK STATE HOURLY WEATHER ROUNDUP
NATIONAL WEATHER SERVICE ALBANY NY
1200 PM EST FRI NOV 28 2014

NOTE: "FAIR" INDICATES FEW OR NO CLOUDS BELOW 12,000 FEET WITH NO
SIGNIFICANT WEATHER AND/OR NO OBSTRUCTIONS TO VISIBILITY.

NYZ032-033-038>043-046>054-057>066-NYZ062>081-281800-
EAST


CITY           SKY/WX    TMP DP  RH WIND       PRES   REMARKS
ALBANY         PTSUNNY   30  16  56 NW8       30.15F WCI  22
GLENS FALLS    CLOUDY    29  20  69 CALM      30.11F
POUGHKEEPSIE   CLOUDY    34  19  54 NW7       30.14F WCI  28
NEWBURGH       PTSUNNY   32  23  69 W16       30.14F WCI  21
MONTGOMERY     SUNNY     32  19  58 W17G25    30.13F HAZE    WCI  21
WHITE PLAINS   MOSUNNY   34  21  59 NW15G23   30.12F WCI  24
ISLIP          MOSUNNY   38  21  50 NW16G28   30.10F WCI  29
NEW YORK CITY  MOSUNNY   36  20  52 NW22      30.16F WCI  25
CENTRAL PARK   PTSUNNY   36  18  48 NW9       30.18F WCI  29
$$

NYZ005>009-017-018-044>046-055-056-281800-
CENTRAL


CITY           SKY/WX    TMP DP  RH WIND       PRES   REMARKS
FULTON         LGT SNOW  26  18  71 W13G24    30.18F WCI  15
SYRACUSE       LGT SNOW  26  19  74 W21       30.19F WCI  12
ROME           MIX PCPN  26  19  74 W20G25    30.17F WCI  12
ELMIRA         PTSUNNY   27  10  49 NW14G26   30.21F WCI  16
BINGHAMTON     CLOUDY    27  11  51 W13       30.12F WCI  16
MONTICELLO     PTSUNNY   25  12  58 W13G25    30.12S WCI  13
$$

NYZ026>034-041>043-281800-
NORTH


CITY           SKY/WX    TMP DP  RH WIND       PRES   REMARKS
WATERTOWN      FLURRIES  26  15  63 NW13      30.17S WCI  15
FORT DRUM      NOT AVBL
MASSENA        FLURRIES  24  13  62 W12       30.15F WCI  13
SARANAC LAKE   LGT SNOW  19  13  77 W10       30.01F WCI   7
PLATTSBURGH    SUNNY     28  15  58 W12G17    30.10F WCI  18
$$

NYZ001>004-010>016-019>021-281800-
WEST


CITY           SKY/WX    TMP DP  RH WIND       PRES   REMARKS
NIAGARA FALLS  PTSUNNY   24  14  65 W16       30.25F WCI  11
BUFFALO        PTSUNNY   24  11  57 W14       30.25F WCI  12
DUNKIRK        CLOUDY    25  13  60 W12G20    30.28F WCI  14
JAMESTOWN      CLOUDY    19  12  73 W8        30.20F WCI   9
WELLSVILLE     FLURRIES  21   8  57 NW17      30.15F WCI   7
ROCHESTER      LGT SNOW  25  18  74 W14       30.23F WCI  13
PENN YAN       CLOUDY    26  10  50 W12G22    30.20F WCI  16
$$

             KEY
       WCI = WIND CHILL INDEX
       VSB = VISIBILITY
       HX  = HEAT INDEX
$$



USA.gov is the U.S. government's official web portal to all federal, state and local government web resources and services.